sat.trackr.live / text

‹ back to catalog

STARLINK-3566

NORAD 51880 · 2022-022AE

PAYLOAD ACTIVE UNKNOWN

§ Identity

Operator
Country
US
Launch date
2022-03-03
Launch site
AFETR
Launch vehicle
Mass (kg)
RCS (m²)

Purposes: comms

External: N2YO · Heavens-Above · Gunter

§ Orbital elements

Epoch: 2026-05-25T02:39:17.826336Z

Period
95.44 min
Inclination
53.2145°
Eccentricity
0.0001547
Mean motion
15.08837931 rev/d
Perigee alt
538.7 km
Apogee alt
540.8 km
Semi-major
6,917.9 km
B*
-6.8284e-7
RAAN
25.7691°
Arg perigee
82.1607°
Mean anomaly
277.9560°
Rev number
23,465

§ Raw data

STARLINK-35661 51880U 22022AE  26145.11062299 -.00000299  00000+0 -68284-6 0  99932 51880  53.2145  25.7691 0001547  82.1607 277.9560 15.08837931234656

JSON: /api/v1/satellites/51880 · /tle

For live sub-satellite position, see the globe view (requires WebGL).

§ Visibility from observer

Set your observer location to see the next 7 days of passes ≥ 10°. The values pass through the URL so the page stays shareable.

No JS? Fill the form by hand. The geolocation button needs JavaScript.